Home   Weather   Township of Washington   Past weeks
Flag for USA

Past Weather in Township of Washington, Arkansas, USA — Yesterday and Last 2 Weeks

Now
49 °F

Sunny.


Feels Like: 45 °F
Forecast: 66 / 48 °F
Wind: 8 mph from West

Location: Adams Field

Current Time: Oct 22, 2019 at 9:12:34 am

Latest Report: Oct 22, 2019 at 7:53 am


Visibility: 10 mi

Pressure: 30.09 "Hg

Humidity: 61%

Dew Point: 36 °F

Location of Township of WashingtonLocation

Past Weather in Township of Washington — Graph

°F

Township of Washington Temperature Yesterday

Maximum temperature yesterday: 74 °F (at 3:53 pm)
Minimum temperature yesterday: 57 °F (at 8:53 pm)
Average temperature yesterday: 66 °F

High & Low Weather Summary for the Past Weeks

 TemperatureHumidityPressure
High86 °F (Oct 10, 2:53 pm)100% (Oct 15, 7:53 am)30.30 "Hg (Oct 15, 7:53 am)
Low38 °F (Oct 12, 6:53 am)25% (Oct 12, 2:53 pm)29.59 "Hg (Oct 21, 3:53 am)
Average61 °F73%29.99 "Hg
* Reported Oct 7 7:53 am — Oct 22 7:53 am, Township of Washington. Weather by CustomWeather, © 2019

Note: Actual official high and low records may vary slightly from our data, if they occured in-between our weather recording intervals... More about our weather records

Advertising

Township of Washington Weather History for the Previous 24 Hours

Scroll right to see more
 ConditionsComfort  
Time TempWeatherWind HumidityBarometerVisibility
7:53 am
Tue, Oct 22
49 °FSunny.8 mph61%30.09 "Hg10 mi
6:53 am46 °FClear.8 mph71%30.07 "Hg10 mi
5:53 am47 °FClear.8 mph69%30.04 "Hg10 mi
4:53 am47 °FClear.7 mph74%30.02 "Hg10 mi
3:53 am49 °FClear.3 mph69%30.00 "Hg10 mi
2:53 am50 °FClear.9 mph66%29.99 "Hg10 mi
1:53 am51 °FClear.8 mph66%29.98 "Hg10 mi
12:53 am54 °FClear.8 mph57%29.96 "Hg10 mi
11:53 pm
Mon, Oct 21
57 °FClear.9 mph47%29.96 "Hg10 mi
10:53 pm58 °FClear.12 mph47%29.95 "Hg10 mi
9:53 pm61 °FClear.15 mph41%29.93 "Hg10 mi
8:53 pm57 °FClear.8 mph62%29.93 "Hg10 mi
7:53 pm58 °FClear.6 mph58%29.89 "Hg10 mi
6:53 pm64 °FPassing clouds.8 mph40%29.85 "Hg10 mi
5:53 pm69 °FPassing clouds.9 mph32%29.83 "Hg10 mi
4:53 pm72 °FPassing clouds.13 mph27%29.81 "Hg10 mi
3:53 pm74 °FPassing clouds.13 mph29%29.79 "Hg10 mi
2:53 pm73 °FScattered clouds.15 mph33%29.78 "Hg10 mi
1:53 pm71 °FScattered clouds.10 mph53%29.78 "Hg10 mi
12:53 pm69 °FPartly sunny.14 mph55%29.80 "Hg10 mi
11:53 am68 °FBroken clouds.12 mph70%29.79 "Hg10 mi
11:33 am68 °FBroken clouds.13 mph73%29.79 "Hg10 mi
11:09 am67 °FPartly sunny.13 mph81%29.79 "Hg10 mi
10:53 am67 °FBroken clouds.9 mph85%29.78 "Hg10 mi
10:23 am65 °FBroken clouds.10 mph91%29.75 "Hg10 mi
9:57 am64 °FMostly cloudy.7 mph94%29.73 "Hg10 mi
Weather by CustomWeather, © 2019

See weather overview